Time,TemperatureF,DewpointF,PressureIn,WindDirection,WindDirectionDegrees,WindSpeedMPH,WindSpeedGustMPH,Humidity,HourlyPrecipIn,Conditions,Clouds,dailyrainin,SoftwareType,DateUTC
2013-03-23 00:00:00,42.0,30.3,30.01,SSE,160,1.0,1.0,63,0.00,,,0.00,Wunderground v.1.15,2013-03-23 04:00:00,
2013-03-23 00:05:00,41.9,29.8,30.01,SSE,160,1.0,1.0,62,0.00,,,0.00,Wunderground v.1.15,2013-03-23 04:05:00,
2013-03-23 00:10:00,41.9,30.2,30.01,SSE,161,0.0,1.0,63,0.00,,,0.00,Wunderground v.1.15,2013-03-23 04:10:00,
2013-03-23 00:15:00,41.9,30.6,30.02,SSE,160,0.0,1.0,64,0.00,,,0.00,Wunderground v.1.15,2013-03-23 04:15:00,
2013-03-23 00:20:00,41.8,30.5,30.01,SSE,161,0.0,0.0,64,0.00,,,0.00,Wunderground v.1.15,2013-03-23 04:20:00,
2013-03-23 00:25:00,41.8,30.5,30.01,SSE,161,0.0,1.0,64,0.00,,,0.00,Wunderground v.1.15,2013-03-23 04:25:00,
2013-03-23 00:30:00,41.7,30.0,30.01,SSE,160,0.0,0.0,63,0.00,,,0.00,Wunderground v.1.15,2013-03-23 04:30:00,
2013-03-23 00:35:00,41.7,30.4,30.01,SSE,161,0.0,0.0,64,0.00,,,0.00,Wunderground v.1.15,2013-03-23 04:35:00,
2013-03-23 00:40:00,41.6,30.3,30.01,SSE,160,0.0,1.0,64,0.00,,,0.00,Wunderground v.1.15,2013-03-23 04:40:00,
2013-03-23 00:45:00,41.6,31.1,30.01,SSE,161,0.0,1.0,66,0.00,,,0.00,Wunderground v.1.15,2013-03-23 04:45:00,
2013-03-23 00:50:00,41.5,30.2,30.01,SSE,161,0.0,0.0,64,0.00,,,0.00,Wunderground v.1.15,2013-03-23 04:50:00,
2013-03-23 00:55:00,41.5,31.4,30.00,SSE,161,0.0,1.0,67,0.00,,,0.00,Wunderground v.1.15,2013-03-23 04:55:00,
2013-03-23 01:00:00,41.4,30.9,30.00,SSE,160,1.0,1.0,66,0.00,,,0.00,Wunderground v.1.15,2013-03-23 05:00:00,
2013-03-23 01:06:00,41.4,31.3,30.00,SSE,160,1.0,2.0,67,0.00,,,0.00,Wunderground v.1.15,2013-03-23 05:06:00,
2013-03-23 01:10:00,41.3,30.8,30.00,SSE,161,1.0,1.0,66,0.00,,,0.00,Wunderground v.1.15,2013-03-23 05:10:00,
2013-03-23 01:15:00,41.3,31.5,29.98,SSE,160,1.0,2.0,68,0.00,,,0.00,Wunderground v.1.15,2013-03-23 05:15:00,
2013-03-23 01:20:00,41.2,30.7,29.98,SSE,160,1.0,1.0,66,0.00,,,0.00,Wunderground v.1.15,2013-03-23 05:20:00,
2013-03-23 01:25:00,41.2,30.3,29.99,SSE,161,1.0,1.0,65,0.00,,,0.00,Wunderground v.1.15,2013-03-23 05:25:00,
2013-03-23 01:30:00,41.3,31.2,29.99,SSE,161,0.0,0.0,67,0.00,,,0.00,Wunderground v.1.15,2013-03-23 05:30:00,
2013-03-23 01:35:00,41.3,31.5,30.00,SSE,160,0.0,0.0,68,0.00,,,0.00,Wunderground v.1.15,2013-03-23 05:35:00,
2013-03-23 01:40:00,41.3,30.8,30.00,SSE,161,0.0,0.0,66,0.00,,,0.00,Wunderground v.1.15,2013-03-23 05:40:00,
2013-03-23 01:45:00,41.2,30.7,30.00,SSE,160,0.0,0.0,66,0.00,,,0.00,Wunderground v.1.15,2013-03-23 05:45:00,
2013-03-23 01:50:00,41.2,30.3,29.99,SSE,161,0.0,0.0,65,0.00,,,0.00,Wunderground v.1.15,2013-03-23 05:50:00,
2013-03-23 01:55:00,41.2,30.3,29.99,SSE,161,0.0,0.0,65,0.00,,,0.00,Wunderground v.1.15,2013-03-23 05:55:00,
2013-03-23 02:00:00,41.2,30.7,29.99,SSE,161,0.0,0.0,66,0.00,,,0.00,Wunderground v.1.15,2013-03-23 06:00:00,
2013-03-23 02:06:00,41.2,30.7,29.99,SSE,161,0.0,0.0,66,0.00,,,0.00,Wunderground v.1.15,2013-03-23 06:06:00,
2013-03-23 02:10:00,41.3,30.8,29.99,SSE,161,0.0,0.0,66,0.00,,,0.00,Wunderground v.1.15,2013-03-23 06:10:00,
2013-03-23 02:15:00,41.2,31.1,29.99,SSE,161,0.0,0.0,67,0.00,,,0.00,Wunderground v.1.15,2013-03-23 06:15:00,
2013-03-23 02:20:00,41.2,31.4,29.98,SSE,160,0.0,0.0,68,0.00,,,0.00,Wunderground v.1.15,2013-03-23 06:20:00,
2013-03-23 02:25:00,41.1,31.3,29.98,SSE,161,1.0,2.0,68,0.00,,,0.00,Wunderground v.1.15,2013-03-23 06:25:00,
2013-03-23 02:30:00,41.1,33.1,29.97,SSE,161,2.0,2.0,73,0.00,,,0.00,Wunderground v.1.15,2013-03-23 06:30:00,
2013-03-23 02:35:00,40.9,33.2,29.97,SSE,161,2.0,2.0,74,0.00,,,0.00,Wunderground v.1.15,2013-03-23 06:35:00,
2013-03-23 02:40:00,40.8,33.2,29.98,SSE,161,1.0,1.0,74,0.00,,,0.00,Wunderground v.1.15,2013-03-23 06:40:00,
2013-03-23 02:45:00,40.8,32.8,29.97,SSE,161,0.0,1.0,73,0.00,,,0.00,Wunderground v.1.15,2013-03-23 06:45:00,
2013-03-23 02:50:00,40.8,32.5,29.96,SSE,161,0.0,0.0,72,0.00,,,0.00,Wunderground v.1.15,2013-03-23 06:50:00,
2013-03-23 03:00:00,41.0,32.0,29.96,SSE,161,0.0,0.0,70,0.00,,,0.00,Wunderground v.1.15,2013-03-23 07:00:00,
2013-03-23 03:05:00,41.1,32.4,29.96,SSE,160,0.0,0.0,71,0.00,,,0.00,Wunderground v.1.15,2013-03-23 07:05:00,
2013-03-23 03:10:00,41.1,31.7,29.96,SSE,161,0.0,0.0,69,0.00,,,0.00,Wunderground v.1.15,2013-03-23 07:10:00,
2013-03-23 03:15:00,41.1,31.7,29.96,SSE,161,0.0,0.0,69,0.00,,,0.00,Wunderground v.1.15,2013-03-23 07:15:00,
2013-03-23 03:20:00,41.2,31.4,29.96,SSE,161,0.0,0.0,68,0.00,,,0.00,Wunderground v.1.15,2013-03-23 07:20:00,
2013-03-23 03:25:00,41.2,31.4,29.96,SSE,160,0.0,0.0,68,0.00,,,0.00,Wunderground v.1.15,2013-03-23 07:25:00,
2013-03-23 03:30:00,41.3,31.5,29.96,SSE,161,0.0,0.0,68,0.00,,,0.00,Wunderground v.1.15,2013-03-23 07:30:00,
2013-03-23 03:35:00,41.3,31.5,29.96,SSE,160,0.0,0.0,68,0.00,,,0.00,Wunderground v.1.15,2013-03-23 07:35:00,
2013-03-23 03:40:00,41.4,31.6,29.95,SSE,161,0.0,0.0,68,0.00,,,0.00,Wunderground v.1.15,2013-03-23 07:40:00,
2013-03-23 03:45:00,41.4,32.3,29.95,SSE,160,0.0,0.0,70,0.00,,,0.00,Wunderground v.1.15,2013-03-23 07:45:00,
2013-03-23 03:50:00,41.4,32.0,29.95,SSE,161,0.0,0.0,69,0.00,,,0.00,Wunderground v.1.15,2013-03-23 07:50:00,
2013-03-23 03:55:00,41.4,31.6,29.95,SSE,161,0.0,0.0,68,0.00,,,0.00,Wunderground v.1.15,2013-03-23 07:55:00,
2013-03-23 04:00:00,41.5,31.7,29.95,SSE,160,0.0,0.0,68,0.00,,,0.00,Wunderground v.1.15,2013-03-23 08:00:00,
2013-03-23 04:05:00,41.5,31.7,29.95,SSE,161,0.0,1.0,68,0.00,,,0.00,Wunderground v.1.15,2013-03-23 08:05:00,
2013-03-23 04:10:00,41.4,32.0,29.95,SSE,160,0.0,0.0,69,0.00,,,0.00,Wunderground v.1.15,2013-03-23 08:10:00,
2013-03-23 04:20:00,41.4,32.0,29.95,SSE,160,0.0,0.0,69,0.00,,,0.00,Wunderground v.1.15,2013-03-23 08:20:00,
2013-03-23 04:25:00,41.3,32.2,29.95,SSE,160,0.0,0.0,70,0.00,,,0.00,Wunderground v.1.15,2013-03-23 08:25:00,
2013-03-23 04:30:00,41.4,32.7,29.95,SSE,160,0.0,1.0,71,0.00,,,0.00,Wunderground v.1.15,2013-03-23 08:30:00,
2013-03-23 04:35:00,41.4,32.7,29.94,SSE,160,0.0,1.0,71,0.00,,,0.00,Wunderground v.1.15,2013-03-23 08:35:00,
2013-03-23 04:40:00,41.3,32.6,29.94,SSE,160,0.0,0.0,71,0.00,,,0.00,Wunderground v.1.15,2013-03-23 08:40:00,
2013-03-23 04:45:00,41.3,33.0,29.95,SSE,160,0.0,0.0,72,0.00,,,0.00,Wunderground v.1.15,2013-03-23 08:45:00,
2013-03-23 04:50:00,41.2,32.9,29.94,SSE,160,0.0,0.0,72,0.00,,,0.00,Wunderground v.1.15,2013-03-23 08:50:00,
2013-03-23 04:55:00,41.2,32.9,29.95,SSE,160,0.0,0.0,72,0.00,,,0.00,Wunderground v.1.15,2013-03-23 08:55:00,
2013-03-23 05:00:00,41.1,33.8,29.94,SSE,160,0.0,0.0,75,0.00,,,0.00,Wunderground v.1.15,2013-03-23 09:00:00,
2013-03-23 05:05:00,40.9,34.2,29.94,SSE,160,0.0,0.0,77,0.00,,,0.00,Wunderground v.1.15,2013-03-23 09:05:00,
2013-03-23 05:10:00,40.8,34.5,29.94,SSE,160,0.0,0.0,78,0.00,,,0.00,Wunderground v.1.15,2013-03-23 09:10:00,
2013-03-23 05:15:00,40.6,35.2,29.94,SSE,160,0.0,0.0,81,0.00,,,0.00,Wunderground v.1.15,2013-03-23 09:15:00,
2013-03-23 05:20:00,40.2,35.4,29.94,SSE,160,0.0,1.0,83,0.17,,,0.02,Wunderground v.1.15,2013-03-23 09:20:00,
2013-03-23 05:25:00,39.5,36.0,29.93,SE,130,1.0,1.0,87,0.12,,,0.03,Wunderground v.1.15,2013-03-23 09:25:00,
2013-03-23 05:30:00,39.1,36.1,29.94,SE,130,1.0,1.0,89,0.07,,,0.03,Wunderground v.1.15,2013-03-23 09:30:00,
2013-03-23 05:35:00,38.8,36.1,29.94,SE,129,0.0,1.0,90,0.05,,,0.04,Wunderground v.1.15,2013-03-23 09:35:00,
2013-03-23 05:40:00,38.6,35.9,29.94,SE,130,0.0,0.0,90,0.05,,,0.04,Wunderground v.1.15,2013-03-23 09:40:00,
2013-03-23 05:45:00,38.4,35.7,29.94,SE,130,0.0,0.0,90,0.05,,,0.04,Wunderground v.1.15,2013-03-23 09:45:00,
2013-03-23 05:50:00,38.2,35.8,29.94,SE,130,0.0,0.0,91,0.04,,,0.05,Wunderground v.1.15,2013-03-23 09:50:00,
2013-03-23 05:55:00,38.1,35.7,29.94,SE,130,0.0,0.0,91,0.14,,,0.06,Wunderground v.1.15,2013-03-23 09:55:00,
2013-03-23 06:00:00,38.0,35.9,29.94,SE,129,0.0,0.0,92,0.09,,,0.06,Wunderground v.1.15,2013-03-23 10:00:00,
2013-03-23 06:05:00,37.9,36.1,29.93,SE,130,0.0,0.0,93,0.07,,,0.07,Wunderground v.1.15,2013-03-23 10:05:00,
2013-03-23 06:10:00,37.7,35.6,29.93,SE,129,0.0,0.0,92,0.07,,,0.07,Wunderground v.1.15,2013-03-23 10:10:00,
2013-03-23 06:15:00,37.7,35.9,29.93,SE,130,0.0,0.0,93,0.08,,,0.08,Wunderground v.1.15,2013-03-23 10:15:00,
2013-03-23 06:20:00,37.8,36.0,29.93,SE,130,1.0,1.0,93,0.06,,,0.08,Wunderground v.1.15,2013-03-23 10:20:00,
2013-03-23 06:25:00,38.0,36.2,29.93,SE,132,1.0,1.0,93,0.04,,,0.08,Wunderground v.1.15,2013-03-23 10:25:00,
2013-03-23 06:30:00,38.2,36.4,29.93,ENE,63,1.0,1.0,93,0.04,,,0.09,Wunderground v.1.15,2013-03-23 10:30:00,
2013-03-23 06:35:00,38.3,36.7,29.93,ENE,62,1.0,1.0,94,0.07,,,0.10,Wunderground v.1.15,2013-03-23 10:35:00,
2013-03-23 06:40:00,38.5,36.9,29.93,NNE,22,0.0,0.0,94,0.07,,,0.10,Wunderground v.1.15,2013-03-23 10:40:00,
2013-03-23 06:45:00,38.7,37.1,29.93,NNE,23,0.0,0.0,94,0.06,,,0.10,Wunderground v.1.15,2013-03-23 10:45:00,
2013-03-23 06:50:00,38.8,36.9,29.94,NNE,19,1.0,1.0,93,0.04,,,0.10,Wunderground v.1.15,2013-03-23 10:50:00,
2013-03-23 06:55:00,38.8,37.2,29.95,NNE,19,0.0,1.0,94,0.04,,,0.11,Wunderground v.1.15,2013-03-23 10:55:00,
2013-03-23 07:00:00,38.7,37.1,29.95,NNE,20,0.0,0.0,94,0.04,,,0.11,Wunderground v.1.15,2013-03-23 11:00:00,
2013-03-23 07:06:00,38.7,37.1,29.95,NNE,20,0.0,0.0,94,0.04,,,0.11,Wunderground v.1.15,2013-03-23 11:06:00,
2013-03-23 07:15:00,38.6,37.0,29.95,NNE,20,0.0,0.0,94,0.00,,,0.11,Wunderground v.1.15,2013-03-23 11:15:00,
2013-03-23 07:20:00,38.6,37.0,29.95,NNE,20,0.0,0.0,94,0.00,,,0.11,Wunderground v.1.15,2013-03-23 11:20:00,
2013-03-23 07:25:00,38.5,36.9,29.95,NNE,19,0.0,0.0,94,0.00,,,0.12,Wunderground v.1.15,2013-03-23 11:25:00,
2013-03-23 07:30:00,38.4,36.8,29.94,NNE,20,0.0,0.0,94,0.00,,,0.12,Wunderground v.1.15,2013-03-23 11:30:00,
2013-03-23 07:40:00,38.4,37.1,29.95,NE,41,1.0,1.0,95,0.00,,,0.12,Wunderground v.1.15,2013-03-23 11:40:00,
2013-03-23 07:45:00,38.5,37.2,29.96,NE,41,1.0,1.0,95,0.00,,,0.12,Wunderground v.1.15,2013-03-23 11:45:00,
2013-03-23 07:50:00,38.5,37.2,29.96,NE,41,0.0,0.0,95,0.00,,,0.13,Wunderground v.1.15,2013-03-23 11:50:00,
2013-03-23 07:55:00,38.5,37.2,29.97,NE,41,0.0,0.0,95,0.00,,,0.13,Wunderground v.1.15,2013-03-23 11:55:00,
2013-03-23 08:00:00,38.5,37.2,29.97,NE,41,0.0,0.0,95,0.09,,,0.14,Wunderground v.1.15,2013-03-23 12:00:00,
2013-03-23 08:06:00,38.6,37.3,29.96,NE,41,0.0,0.0,95,0.06,,,0.14,Wunderground v.1.15,2013-03-23 12:06:00,
2013-03-23 08:10:00,38.6,37.3,29.97,NE,41,0.0,0.0,95,0.04,,,0.14,Wunderground v.1.15,2013-03-23 12:10:00,
2013-03-23 08:15:00,38.5,37.2,29.97,NE,41,0.0,0.0,95,0.00,,,0.14,Wunderground v.1.15,2013-03-23 12:15:00,
2013-03-23 08:25:00,38.4,37.1,29.96,NE,41,0.0,1.0,95,0.00,,,0.15,Wunderground v.1.15,2013-03-23 12:25:00,
2013-03-23 08:30:00,38.5,37.5,29.96,NE,41,0.0,0.0,96,0.13,,,0.16,Wunderground v.1.15,2013-03-23 12:30:00,
2013-03-23 08:35:00,38.6,37.6,29.95,NE,41,1.0,2.0,96,0.07,,,0.16,Wunderground v.1.15,2013-03-23 12:35:00,
2013-03-23 08:40:00,38.9,37.9,29.96,NE,41,1.0,1.0,96,0.04,,,0.16,Wunderground v.1.15,2013-03-23 12:40:00,
2013-03-23 08:45:00,39.1,38.1,29.96,NE,41,0.0,1.0,96,0.00,,,0.16,Wunderground v.1.15,2013-03-23 12:45:00,
2013-03-23 08:50:00,39.3,38.3,29.96,NE,45,0.0,0.0,96,0.00,,,0.16,Wunderground v.1.15,2013-03-23 12:50:00,
2013-03-23 08:55:00,39.8,38.8,29.96,NE,45,1.0,1.0,96,0.00,,,0.17,Wunderground v.1.15,2013-03-23 12:55:00,
2013-03-23 09:00:00,40.4,39.6,29.95,East,101,1.0,2.0,97,0.00,,,0.17,Wunderground v.1.15,2013-03-23 13:00:00,
2013-03-23 09:05:00,40.7,39.9,29.95,East,101,2.0,2.0,97,0.06,,,0.18,Wunderground v.1.15,2013-03-23 13:05:00,
2013-03-23 09:10:00,41.0,40.2,29.94,East,101,2.0,2.0,97,0.06,,,0.18,Wunderground v.1.15,2013-03-23 13:10:00,
2013-03-23 09:15:00,41.2,40.4,29.94,East,101,2.0,3.0,97,0.05,,,0.18,Wunderground v.1.15,2013-03-23 13:15:00,
2013-03-23 09:20:00,41.3,40.5,29.94,ESE,110,2.0,2.0,97,0.04,,,0.18,Wunderground v.1.15,2013-03-23 13:20:00,
2013-03-23 09:25:00,41.6,40.8,29.95,ESE,110,2.0,2.0,97,0.00,,,0.18,Wunderground v.1.15,2013-03-23 13:25:00,
2013-03-23 09:30:00,41.6,40.8,29.95,ESE,110,1.0,1.0,97,0.00,,,0.18,Wunderground v.1.15,2013-03-23 13:30:00,
2013-03-23 09:40:00,41.7,40.9,29.95,ESE,110,0.0,0.0,97,0.00,,,0.18,Wunderground v.1.15,2013-03-23 13:40:00,
2013-03-23 09:45:00,41.6,40.5,29.96,ESE,110,0.0,0.0,96,0.00,,,0.19,Wunderground v.1.15,2013-03-23 13:45:00,
2013-03-23 09:50:00,41.7,40.9,29.96,ESE,110,0.0,0.0,97,0.00,,,0.19,Wunderground v.1.15,2013-03-23 13:50:00,
2013-03-23 09:55:00,41.8,41.0,29.95,ESE,110,0.0,1.0,97,0.00,,,0.19,Wunderground v.1.15,2013-03-23 13:55:00,
2013-03-23 10:00:00,42.2,41.4,29.95,ESE,110,1.0,3.0,97,0.00,,,0.19,Wunderground v.1.15,2013-03-23 14:00:00,
2013-03-23 10:05:00,42.2,41.1,29.94,ESE,110,2.0,3.0,96,0.00,,,0.19,Wunderground v.1.15,2013-03-23 14:05:00,
2013-03-23 10:15:00,42.4,41.6,29.94,ESE,110,0.0,1.0,97,0.00,,,0.19,Wunderground v.1.15,2013-03-23 14:15:00,
2013-03-23 10:20:00,42.6,41.8,29.94,ESE,110,0.0,0.0,97,0.00,,,0.19,Wunderground v.1.15,2013-03-23 14:20:00,
2013-03-23 10:25:00,42.9,42.1,29.94,ESE,110,0.0,0.0,97,0.00,,,0.19,Wunderground v.1.15,2013-03-23 14:25:00,
2013-03-23 10:30:00,43.3,42.5,29.95,ESE,110,0.0,0.0,97,0.00,,,0.19,Wunderground v.1.15,2013-03-23 14:30:00,
2013-03-23 10:35:00,43.6,42.8,29.95,ESE,110,0.0,0.0,97,0.00,,,0.19,Wunderground v.1.15,2013-03-23 14:35:00,
2013-03-23 10:40:00,43.7,42.9,29.95,ESE,110,0.0,0.0,97,0.00,,,0.19,Wunderground v.1.15,2013-03-23 14:40:00,
2013-03-23 10:45:00,43.7,42.9,29.95,ESE,110,0.0,0.0,97,0.00,,,0.19,Wunderground v.1.15,2013-03-23 14:45:00,
2013-03-23 10:50:00,43.9,43.1,29.95,ESE,110,0.0,0.0,97,0.00,,,0.19,Wunderground v.1.15,2013-03-23 14:50:00,
2013-03-23 10:55:00,44.1,43.3,29.95,ESE,110,0.0,0.0,97,0.00,,,0.19,Wunderground v.1.15,2013-03-23 14:55:00,
2013-03-23 11:00:00,44.2,43.4,29.95,ESE,110,0.0,0.0,97,0.00,,,0.19,Wunderground v.1.15,2013-03-23 15:00:00,
2013-03-23 11:05:00,44.3,43.5,29.95,ESE,110,0.0,0.0,97,0.00,,,0.19,Wunderground v.1.15,2013-03-23 15:05:00,
2013-03-23 11:10:00,44.3,43.5,29.95,ESE,110,0.0,1.0,97,0.00,,,0.19,Wunderground v.1.15,2013-03-23 15:10:00,
2013-03-23 11:15:00,44.5,43.7,29.94,ESE,110,0.0,1.0,97,0.00,,,0.19,Wunderground v.1.15,2013-03-23 15:15:00,
2013-03-23 11:20:00,45.0,44.2,29.94,ESE,110,0.0,0.0,97,0.00,,,0.19,Wunderground v.1.15,2013-03-23 15:20:00,
2013-03-23 11:25:00,45.1,44.3,29.94,ESE,110,0.0,1.0,97,0.00,,,0.19,Wunderground v.1.15,2013-03-23 15:25:00,
2013-03-23 11:30:00,45.4,44.6,29.94,ESE,110,0.0,2.0,97,0.00,,,0.19,Wunderground v.1.15,2013-03-23 15:30:00,
2013-03-23 11:35:00,45.6,44.5,29.94,ESE,110,0.0,2.0,96,0.00,,,0.19,Wunderground v.1.15,2013-03-23 15:35:00,
2013-03-23 11:40:00,45.7,44.6,29.93,ESE,110,1.0,1.0,96,0.00,,,0.19,Wunderground v.1.15,2013-03-23 15:40:00,
2013-03-23 11:45:00,45.8,44.4,29.94,ESE,110,0.0,1.0,95,0.00,,,0.19,Wunderground v.1.15,2013-03-23 15:45:00,
2013-03-23 11:50:00,46.0,44.6,29.94,ESE,110,0.0,0.0,95,0.00,,,0.19,Wunderground v.1.15,2013-03-23 15:50:00,
2013-03-23 11:55:00,46.0,44.4,29.93,ESE,110,1.0,1.0,94,0.00,,,0.19,Wunderground v.1.15,2013-03-23 15:55:00,
2013-03-23 12:00:00,46.0,44.4,29.93,ESE,110,2.0,2.0,94,0.00,,,0.19,Wunderground v.1.15,2013-03-23 16:00:00,
2013-03-23 12:05:00,46.1,44.5,29.93,ESE,110,1.0,2.0,94,0.00,,,0.19,Wunderground v.1.15,2013-03-23 16:05:00,
2013-03-23 12:10:00,46.2,44.6,29.93,ESE,110,1.0,1.0,94,0.00,,,0.19,Wunderground v.1.15,2013-03-23 16:10:00,
2013-03-23 12:15:00,46.4,44.8,29.93,ESE,110,1.0,3.0,94,0.00,,,0.19,Wunderground v.1.15,2013-03-23 16:15:00,
2013-03-23 12:20:00,46.4,44.8,29.93,ESE,110,2.0,2.0,94,0.00,,,0.19,Wunderground v.1.15,2013-03-23 16:20:00,
2013-03-23 12:25:00,46.4,44.5,29.93,ESE,110,2.0,2.0,93,0.00,,,0.19,Wunderground v.1.15,2013-03-23 16:25:00,
2013-03-23 12:30:00,46.6,45.0,29.93,ESE,110,1.0,1.0,94,0.00,,,0.19,Wunderground v.1.15,2013-03-23 16:30:00,
2013-03-23 12:35:00,46.7,44.8,29.93,ESE,110,0.0,1.0,93,0.00,,,0.19,Wunderground v.1.15,2013-03-23 16:35:00,
2013-03-23 12:40:00,46.8,44.9,29.93,ESE,110,0.0,3.0,93,0.00,,,0.19,Wunderground v.1.15,2013-03-23 16:40:00,
2013-03-23 12:45:00,46.7,44.8,29.93,ESE,110,0.0,3.0,93,0.00,,,0.19,Wunderground v.1.15,2013-03-23 16:45:00,
2013-03-23 12:50:00,46.5,44.0,29.92,ESE,110,0.0,0.0,91,0.00,,,0.19,Wunderground v.1.15,2013-03-23 16:50:00,
2013-03-23 12:55:00,46.3,43.8,29.92,ESE,112,0.0,0.0,91,0.00,,,0.19,Wunderground v.1.15,2013-03-23 16:55:00,
2013-03-23 13:00:00,46.3,44.1,29.92,ESE,111,1.0,1.0,92,0.00,,,0.19,Wunderground v.1.15,2013-03-23 17:00:00,
2013-03-23 13:06:00,46.3,44.1,29.92,ESE,112,0.0,1.0,92,0.00,,,0.19,Wunderground v.1.15,2013-03-23 17:06:00,
2013-03-23 13:10:00,46.5,44.3,29.92,ESE,111,0.0,0.0,92,0.00,,,0.19,Wunderground v.1.15,2013-03-23 17:10:00,
2013-03-23 13:15:00,46.7,44.8,29.92,ESE,111,0.0,0.0,93,0.00,,,0.19,Wunderground v.1.15,2013-03-23 17:15:00,
2013-03-23 13:20:00,46.9,45.0,29.92,ESE,111,0.0,0.0,93,0.00,,,0.19,Wunderground v.1.15,2013-03-23 17:20:00,
2013-03-23 13:25:00,47.1,44.9,29.92,ESE,112,0.0,0.0,92,0.00,,,0.19,Wunderground v.1.15,2013-03-23 17:25:00,
2013-03-23 13:30:00,47.2,45.0,29.91,ESE,112,0.0,0.0,92,0.00,,,0.19,Wunderground v.1.15,2013-03-23 17:30:00,
2013-03-23 13:35:00,47.4,45.2,29.91,ESE,111,0.0,1.0,92,0.00,,,0.19,Wunderground v.1.15,2013-03-23 17:35:00,
2013-03-23 13:40:00,47.5,45.0,29.91,ESE,112,1.0,1.0,91,0.00,,,0.19,Wunderground v.1.15,2013-03-23 17:40:00,
2013-03-23 13:45:00,47.7,45.5,29.90,ESE,112,1.0,1.0,92,0.00,,,0.19,Wunderground v.1.15,2013-03-23 17:45:00,
2013-03-23 13:50:00,47.9,45.4,29.90,ESE,111,0.0,0.0,91,0.00,,,0.19,Wunderground v.1.15,2013-03-23 17:50:00,
2013-03-23 13:55:00,48.3,46.1,29.90,ESE,111,0.0,0.0,92,0.00,,,0.19,Wunderground v.1.15,2013-03-23 17:55:00,
2013-03-23 14:00:00,48.7,46.5,29.90,ESE,112,0.0,0.0,92,0.00,,,0.19,Wunderground v.1.15,2013-03-23 18:00:00,
2013-03-23 14:05:00,49.2,46.7,29.89,ESE,112,0.0,0.0,91,0.00,,,0.19,Wunderground v.1.15,2013-03-23 18:05:00,
2013-03-23 14:15:00,49.6,46.8,29.89,ESE,112,0.0,1.0,90,0.00,,,0.19,Wunderground v.1.15,2013-03-23 18:15:00,
2013-03-23 14:20:00,49.7,46.6,29.89,ESE,111,0.0,1.0,89,0.00,,,0.19,Wunderground v.1.15,2013-03-23 18:20:00,
2013-03-23 14:25:00,49.7,46.6,29.88,ESE,112,0.0,1.0,89,0.00,,,0.19,Wunderground v.1.15,2013-03-23 18:25:00,
2013-03-23 14:30:00,49.8,47.0,29.88,ESE,111,0.0,1.0,90,0.00,,,0.19,Wunderground v.1.15,2013-03-23 18:30:00,
2013-03-23 14:35:00,49.9,47.1,29.88,ESE,112,0.0,1.0,90,0.00,,,0.19,Wunderground v.1.15,2013-03-23 18:35:00,
2013-03-23 14:40:00,50.0,46.9,29.88,ESE,112,0.0,0.0,89,0.00,,,0.19,Wunderground v.1.15,2013-03-23 18:40:00,
2013-03-23 14:45:00,50.3,47.2,29.88,ESE,112,0.0,0.0,89,0.00,,,0.19,Wunderground v.1.15,2013-03-23 18:45:00,
2013-03-23 14:50:00,50.6,47.2,29.88,ESE,113,1.0,2.0,88,0.00,,,0.19,Wunderground v.1.15,2013-03-23 18:50:00,
2013-03-23 14:55:00,50.9,47.8,29.88,ESE,113,1.0,2.0,89,0.00,,,0.19,Wunderground v.1.15,2013-03-23 18:55:00,
2013-03-23 15:00:00,51.2,47.8,29.87,ESE,113,1.0,1.0,88,0.00,,,0.19,Wunderground v.1.15,2013-03-23 19:00:00,
2013-03-23 15:05:00,51.6,47.5,29.87,ESE,114,1.0,2.0,86,0.00,,,0.19,Wunderground v.1.15,2013-03-23 19:05:00,
2013-03-23 15:10:00,51.9,48.5,29.86,SE,125,1.0,1.0,88,0.00,,,0.19,Wunderground v.1.15,2013-03-23 19:10:00,
2013-03-23 15:15:00,52.5,49.0,29.86,SE,126,1.0,1.0,88,0.00,,,0.19,Wunderground v.1.15,2013-03-23 19:15:00,
2013-03-23 15:20:00,52.9,48.8,29.85,SE,137,1.0,2.0,86,0.00,,,0.19,Wunderground v.1.15,2013-03-23 19:20:00,
2013-03-23 15:25:00,53.1,48.7,29.85,SE,141,1.0,2.0,85,0.00,,,0.19,Wunderground v.1.15,2013-03-23 19:25:00,
2013-03-23 15:30:00,53.2,48.8,29.84,SSE,156,1.0,1.0,85,0.00,,,0.19,Wunderground v.1.15,2013-03-23 19:30:00,
2013-03-23 15:35:00,53.5,49.1,29.84,SSE,157,1.0,1.0,85,0.00,,,0.19,Wunderground v.1.15,2013-03-23 19:35:00,
2013-03-23 15:40:00,53.6,48.9,29.84,SSE,157,1.0,1.0,84,0.00,,,0.19,Wunderground v.1.15,2013-03-23 19:40:00,
2013-03-23 15:45:00,53.8,48.8,29.84,SSE,157,1.0,1.0,83,0.00,,,0.19,Wunderground v.1.15,2013-03-23 19:45:00,
2013-03-23 15:50:00,53.9,48.9,29.84,SSE,156,0.0,0.0,83,0.00,,,0.19,Wunderground v.1.15,2013-03-23 19:50:00,
2013-03-23 15:55:00,53.9,48.5,29.84,SSE,157,0.0,0.0,82,0.00,,,0.19,Wunderground v.1.15,2013-03-23 19:55:00,
2013-03-23 16:00:00,54.0,49.0,29.84,SSE,156,0.0,0.0,83,0.00,,,0.19,Wunderground v.1.15,2013-03-23 20:00:00,
2013-03-23 16:05:00,54.0,48.6,29.84,SSE,166,1.0,1.0,82,0.00,,,0.19,Wunderground v.1.15,2013-03-23 20:05:00,
2013-03-23 16:10:00,53.9,48.9,29.83,SSE,166,1.0,1.0,83,0.00,,,0.19,Wunderground v.1.15,2013-03-23 20:10:00,
2013-03-23 16:15:00,54.0,49.6,29.83,SSE,166,1.0,1.0,85,0.00,,,0.19,Wunderground v.1.15,2013-03-23 20:15:00,
2013-03-23 16:20:00,54.0,49.0,29.83,SSE,166,0.0,3.0,83,0.00,,,0.19,Wunderground v.1.15,2013-03-23 20:20:00,
2013-03-23 16:25:00,54.1,49.7,29.83,SSE,166,1.0,3.0,85,0.00,,,0.19,Wunderground v.1.15,2013-03-23 20:25:00,
2013-03-23 16:30:00,54.2,49.1,29.83,SSE,166,0.0,1.0,83,0.00,,,0.19,Wunderground v.1.15,2013-03-23 20:30:00,
2013-03-23 16:35:00,54.3,49.6,29.83,SSE,165,0.0,1.0,84,0.00,,,0.19,Wunderground v.1.15,2013-03-23 20:35:00,
2013-03-23 16:40:00,54.4,49.3,29.83,SSE,166,0.0,0.0,83,0.00,,,0.19,Wunderground v.1.15,2013-03-23 20:40:00,
2013-03-23 16:45:00,54.4,49.0,29.83,SSE,166,0.0,0.0,82,0.00,,,0.19,Wunderground v.1.15,2013-03-23 20:45:00,
2013-03-23 16:50:00,54.2,48.8,29.83,SSE,165,0.0,0.0,82,0.00,,,0.19,Wunderground v.1.15,2013-03-23 20:50:00,
2013-03-23 16:55:00,54.2,48.8,29.82,SSE,165,1.0,1.0,82,0.00,,,0.19,Wunderground v.1.15,2013-03-23 20:55:00,
2013-03-23 17:00:00,54.0,48.6,29.83,SSE,166,1.0,3.0,82,0.00,,,0.19,Wunderground v.1.15,2013-03-23 21:00:00,
2013-03-23 17:06:00,53.9,48.9,29.82,SSE,166,1.0,3.0,83,0.00,,,0.19,Wunderground v.1.15,2013-03-23 21:06:00,
2013-03-23 17:10:00,53.9,49.2,29.82,SSE,165,1.0,1.0,84,0.00,,,0.19,Wunderground v.1.15,2013-03-23 21:10:00,
2013-03-23 17:15:00,54.0,49.6,29.82,SSE,166,1.0,1.0,85,0.00,,,0.19,Wunderground v.1.15,2013-03-23 21:15:00,
2013-03-23 17:20:00,54.1,49.4,29.82,SSE,165,0.0,0.0,84,0.00,,,0.19,Wunderground v.1.15,2013-03-23 21:20:00,
2013-03-23 17:25:00,54.3,49.2,29.82,SSE,166,0.0,0.0,83,0.00,,,0.19,Wunderground v.1.15,2013-03-23 21:25:00,
2013-03-23 17:30:00,54.5,49.8,29.82,SSE,166,0.0,0.0,84,0.00,,,0.19,Wunderground v.1.15,2013-03-23 21:30:00,
2013-03-23 17:35:00,54.5,49.4,29.83,SSE,165,0.0,0.0,83,0.00,,,0.19,Wunderground v.1.15,2013-03-23 21:35:00,
2013-03-23 17:40:00,54.7,50.0,29.83,SSE,166,0.0,0.0,84,0.00,,,0.19,Wunderground v.1.15,2013-03-23 21:40:00,
2013-03-23 17:45:00,54.7,49.3,29.83,SSE,165,0.0,0.0,82,0.00,,,0.19,Wunderground v.1.15,2013-03-23 21:45:00,
2013-03-23 17:50:00,54.5,49.8,29.83,SSE,165,1.0,1.0,84,0.00,,,0.19,Wunderground v.1.15,2013-03-23 21:50:00,
2013-03-23 17:55:00,54.4,49.3,29.83,SSE,166,0.0,1.0,83,0.00,,,0.19,Wunderground v.1.15,2013-03-23 21:55:00,
2013-03-23 18:00:00,54.3,49.2,29.82,SSE,165,0.0,0.0,83,0.00,,,0.19,Wunderground v.1.15,2013-03-23 22:00:00,
2013-03-23 18:05:00,54.4,49.7,29.82,SSE,166,0.0,0.0,84,0.00,,,0.20,Wunderground v.1.15,2013-03-23 22:05:00,
2013-03-23 18:10:00,54.5,49.8,29.83,SSE,166,0.0,0.0,84,0.00,,,0.20,Wunderground v.1.15,2013-03-23 22:10:00,
2013-03-23 18:15:00,54.5,49.8,29.83,SSE,165,0.0,0.0,84,0.00,,,0.20,Wunderground v.1.15,2013-03-23 22:15:00,
2013-03-23 18:20:00,54.4,49.0,29.82,SSE,166,0.0,0.0,82,0.00,,,0.20,Wunderground v.1.15,2013-03-23 22:20:00,
2013-03-23 18:25:00,54.3,49.6,29.82,SSE,165,0.0,0.0,84,0.00,,,0.20,Wunderground v.1.15,2013-03-23 22:25:00,
2013-03-23 18:30:00,54.3,49.6,29.83,SSE,166,0.0,0.0,84,0.00,,,0.20,Wunderground v.1.15,2013-03-23 22:30:00,
2013-03-23 18:35:00,54.1,49.4,29.83,SSE,165,0.0,0.0,84,0.00,,,0.20,Wunderground v.1.15,2013-03-23 22:35:00,
2013-03-23 18:40:00,54.0,49.6,29.83,SSE,166,0.0,0.0,85,0.00,,,0.20,Wunderground v.1.15,2013-03-23 22:40:00,
2013-03-23 18:45:00,54.0,49.6,29.84,SSE,166,0.0,0.0,85,0.00,,,0.20,Wunderground v.1.15,2013-03-23 22:45:00,
2013-03-23 18:50:00,53.9,49.2,29.83,SSE,166,0.0,0.0,84,0.00,,,0.20,Wunderground v.1.15,2013-03-23 22:50:00,
2013-03-23 18:55:00,53.8,49.4,29.84,SSE,165,0.0,0.0,85,0.00,,,0.20,Wunderground v.1.15,2013-03-23 22:55:00,
2013-03-23 19:00:00,53.6,49.2,29.85,SSE,166,0.0,0.0,85,0.00,,,0.20,Wunderground v.1.15,2013-03-23 23:00:00,
2013-03-23 19:05:00,53.5,49.4,29.84,SSE,166,0.0,0.0,86,0.00,,,0.20,Wunderground v.1.15,2013-03-23 23:05:00,
2013-03-23 19:10:00,53.5,49.4,29.84,SSE,166,0.0,0.0,86,0.00,,,0.20,Wunderground v.1.15,2013-03-23 23:10:00,
2013-03-23 19:15:00,53.3,49.2,29.83,WSW,240,0.0,0.0,86,0.00,,,0.20,Wunderground v.1.15,2013-03-23 23:15:00,
2013-03-23 19:20:00,53.3,49.2,29.83,WSW,240,0.0,0.0,86,0.00,,,0.20,Wunderground v.1.15,2013-03-23 23:20:00,
2013-03-23 19:25:00,53.2,48.8,29.82,WSW,240,0.0,0.0,85,0.00,,,0.20,Wunderground v.1.15,2013-03-23 23:25:00,
2013-03-23 19:30:00,53.0,48.9,29.82,WSW,240,0.0,0.0,86,0.00,,,0.20,Wunderground v.1.15,2013-03-23 23:30:00,
2013-03-23 19:40:00,52.6,48.8,29.82,WSW,240,0.0,0.0,87,0.00,,,0.20,Wunderground v.1.15,2013-03-23 23:40:00,
2013-03-23 19:45:00,52.4,48.3,29.82,WSW,240,0.0,0.0,86,0.00,,,0.20,Wunderground v.1.15,2013-03-23 23:45:00,
2013-03-23 19:50:00,52.3,48.2,29.81,WSW,240,0.0,0.0,86,0.00,,,0.20,Wunderground v.1.15,2013-03-23 23:50:00,
2013-03-23 19:55:00,51.9,48.2,29.80,WSW,240,0.0,0.0,87,0.00,,,0.20,Wunderground v.1.15,2013-03-23 23:55:00,
2013-03-23 20:00:00,51.7,48.0,29.80,WSW,240,0.0,0.0,87,0.00,,,0.20,Wunderground v.1.15,2013-03-24 00:00:00,
2013-03-23 20:06:00,51.4,47.7,29.80,WSW,240,0.0,0.0,87,0.00,,,0.20,Wunderground v.1.15,2013-03-24 00:06:00,
2013-03-23 20:10:00,51.0,47.6,29.79,WSW,240,0.0,0.0,88,0.00,,,0.20,Wunderground v.1.15,2013-03-24 00:10:00,
2013-03-23 20:15:00,50.6,47.5,29.79,WSW,240,0.0,1.0,89,0.00,,,0.20,Wunderground v.1.15,2013-03-24 00:15:00,
2013-03-23 20:20:00,50.3,47.5,29.79,WSW,240,0.0,2.0,90,0.00,,,0.20,Wunderground v.1.15,2013-03-24 00:20:00,
2013-03-23 20:25:00,50.0,47.5,29.78,SE,137,1.0,2.0,91,0.00,,,0.20,Wunderground v.1.15,2013-03-24 00:25:00,
2013-03-23 20:30:00,49.9,47.7,29.78,East,101,1.0,3.0,92,0.00,,,0.20,Wunderground v.1.15,2013-03-24 00:30:00,
2013-03-23 20:35:00,49.7,47.5,29.79,SSE,155,2.0,3.0,92,0.00,,,0.20,Wunderground v.1.15,2013-03-24 00:35:00,
2013-03-23 20:40:00,49.2,46.7,29.79,SE,138,3.0,3.0,91,0.00,,,0.20,Wunderground v.1.15,2013-03-24 00:40:00,
2013-03-23 20:45:00,48.9,46.7,29.79,SE,124,3.0,4.0,92,0.00,,,0.20,Wunderground v.1.15,2013-03-24 00:45:00,
2013-03-23 20:50:00,48.5,46.3,29.79,ESE,113,3.0,3.0,92,0.00,,,0.20,Wunderground v.1.15,2013-03-24 00:50:00,
2013-03-23 20:55:00,48.1,46.2,29.79,ESE,117,3.0,3.0,93,0.00,,,0.20,Wunderground v.1.15,2013-03-24 00:55:00,
2013-03-23 21:00:00,47.8,45.9,29.79,ESE,117,3.0,3.0,93,0.00,,,0.20,Wunderground v.1.15,2013-03-24 01:00:00,
2013-03-23 21:05:00,47.5,45.6,29.78,ESE,119,2.0,3.0,93,0.00,,,0.20,Wunderground v.1.15,2013-03-24 01:05:00,
2013-03-23 21:10:00,47.3,45.7,29.78,ESE,118,2.0,2.0,94,0.00,,,0.20,Wunderground v.1.15,2013-03-24 01:10:00,
2013-03-23 21:15:00,47.2,45.6,29.79,East,86,1.0,2.0,94,0.00,,,0.20,Wunderground v.1.15,2013-03-24 01:15:00,
2013-03-23 21:20:00,47.2,45.8,29.80,East,98,1.0,1.0,95,0.00,,,0.20,Wunderground v.1.15,2013-03-24 01:20:00,
2013-03-23 21:25:00,47.2,45.8,29.80,East,90,1.0,5.0,95,0.00,,,0.20,Wunderground v.1.15,2013-03-24 01:25:00,
2013-03-23 21:30:00,47.1,45.7,29.81,East,101,1.0,1.0,95,0.00,,,0.20,Wunderground v.1.15,2013-03-24 01:30:00,
2013-03-23 21:35:00,47.1,45.7,29.82,ESE,106,1.0,4.0,95,0.00,,,0.20,Wunderground v.1.15,2013-03-24 01:35:00,
2013-03-23 21:40:00,47.0,45.6,29.81,ESE,109,2.0,2.0,95,0.00,,,0.20,Wunderground v.1.15,2013-03-24 01:40:00,
2013-03-23 21:45:00,46.9,45.5,29.81,ESE,118,3.0,3.0,95,0.00,,,0.20,Wunderground v.1.15,2013-03-24 01:45:00,
2013-03-23 21:50:00,46.8,45.4,29.81,SE,124,4.0,5.0,95,0.00,,,0.20,Wunderground v.1.15,2013-03-24 01:50:00,
2013-03-23 21:55:00,46.7,45.3,29.80,SE,125,3.0,5.0,95,0.00,,,0.20,Wunderground v.1.15,2013-03-24 01:55:00,
2013-03-23 22:00:00,46.7,45.3,29.78,SE,141,3.0,3.0,95,0.00,,,0.20,Wunderground v.1.15,2013-03-24 02:00:00,
2013-03-23 22:05:00,46.5,45.1,29.78,SSE,148,2.0,3.0,95,0.00,,,0.20,Wunderground v.1.15,2013-03-24 02:05:00,
2013-03-23 22:15:00,46.5,45.1,29.77,ESE,117,2.0,5.0,95,0.00,,,0.20,Wunderground v.1.15,2013-03-24 02:15:00,
2013-03-23 22:20:00,46.5,45.1,29.76,SE,132,4.0,4.0,95,0.00,,,0.20,Wunderground v.1.15,2013-03-24 02:20:00,
2013-03-23 22:25:00,46.5,45.1,29.76,ESE,121,4.0,4.0,95,0.00,,,0.20,Wunderground v.1.15,2013-03-24 02:25:00,
2013-03-23 22:30:00,46.7,45.6,29.76,ESE,115,3.0,5.0,96,0.00,,,0.20,Wunderground v.1.15,2013-03-24 02:30:00,
2013-03-23 22:35:00,46.8,45.7,29.76,SE,126,4.0,5.0,96,0.00,,,0.20,Wunderground v.1.15,2013-03-24 02:35:00,
2013-03-23 22:40:00,47.1,45.7,29.76,SE,133,5.0,6.0,95,0.00,,,0.20,Wunderground v.1.15,2013-03-24 02:40:00,
2013-03-23 22:45:00,47.3,45.7,29.77,SE,140,7.0,7.0,94,0.00,,,0.20,Wunderground v.1.15,2013-03-24 02:45:00,
2013-03-23 22:50:00,47.2,45.3,29.77,SE,127,7.0,7.0,93,0.00,,,0.20,Wunderground v.1.15,2013-03-24 02:50:00,
2013-03-23 22:55:00,46.9,45.0,29.77,ESE,113,5.0,7.0,93,0.00,,,0.20,Wunderground v.1.15,2013-03-24 02:55:00,
2013-03-23 23:00:00,46.7,45.1,29.78,ESE,114,3.0,3.0,94,0.00,,,0.20,Wunderground v.1.15,2013-03-24 03:00:00,
2013-03-23 23:05:00,46.5,44.9,29.78,SE,128,3.0,9.0,94,0.00,,,0.20,Wunderground v.1.15,2013-03-24 03:05:00,
2013-03-23 23:10:00,46.5,44.9,29.78,SE,144,4.0,4.0,94,0.00,,,0.20,Wunderground v.1.15,2013-03-24 03:10:00,
2013-03-23 23:15:00,46.4,44.8,29.78,SE,125,5.0,9.0,94,0.00,,,0.20,Wunderground v.1.15,2013-03-24 03:15:00,
2013-03-23 23:20:00,46.5,44.6,29.80,SSE,148,5.0,5.0,93,0.00,,,0.20,Wunderground v.1.15,2013-03-24 03:20:00,
2013-03-23 23:25:00,46.5,44.6,29.78,ESE,121,5.0,5.0,93,0.00,,,0.20,Wunderground v.1.15,2013-03-24 03:25:00,
2013-03-23 23:30:00,46.5,44.3,29.77,ESE,123,6.0,6.0,92,0.00,,,0.20,Wunderground v.1.15,2013-03-24 03:30:00,
2013-03-23 23:35:00,46.7,44.2,29.74,ESE,122,8.0,15.0,91,0.00,,,0.20,Wunderground v.1.15,2013-03-24 03:35:00,
2013-03-23 23:40:00,46.7,44.2,29.74,ESE,119,10.0,12.0,91,0.00,,,0.20,Wunderground v.1.15,2013-03-24 03:40:00,
2013-03-23 23:50:00,46.7,43.9,29.74,ESE,110,8.0,14.0,90,0.00,,,0.20,Wunderground v.1.15,2013-03-24 03:50:00,
2013-03-23 23:55:00,46.8,44.0,29.74,ESE,109,10.0,14.0,90,0.00,,,0.20,Wunderground v.1.15,2013-03-24 03:55:00,